Weather History for Harrison, AR

Change the Weather History Date:

Thursday, September 19, 2013

  Actual Average Record
Temperature  
Mean Temperature 80 °F 68 °F  
Max Temperature 90 °F 79 °F 100 °F (1954)
Min Temperature 69 °F 56 °F 35 °F (1901)
Degree Days  
Heating Degree Days 0 2  
Month to date heating degree days 0 11  
Since 1 July heating degree days 1 12  
Cooling Degree Days 15 5  
Month to date cooling degree days 187 132  
Year to date cooling degree days 1331 1343  
Growing Degree Days 30 (Base 50)    
Moisture  
Dew Point 67 °F    
Average Humidity 70    
Maximum Humidity 90    
Minimum Humidity 50    
Precipitation  
Precipitation T in 0.14 in 2.72 in (1958)
Month to date precipitation 0.35 2.68  
Year to date precipitation 33.17 31.64  
Snow  
Snow 0.00 in 0.00 in - ()
Month to date snowfall 0.0 0.0  
Since 1 July snowfall 0.0 0.0  
Since 1 September snowfall 0.0 0.0  
Snow Depth 0.00 in    
Sea Level Pressure  
Sea Level Pressure 29.97 in    
Wind  
Wind Speed 7 mph (South)    
Max Wind Speed 15 mph    
Max Gust Speed 21 mph    
Visibility 10 miles    
Events Rain , Thunderstorm    
T = Trace of Precipitation, MM = Missing Value Source: NWS Daily Summary

Daily Weather History Graph

Daily Weather History Graph

Search for Another Location

Airport:

Trip Planner

Search our weather history database for the weather conditions in past years. The results will help you decide how hot, cold, wet, or windy it might be!

Date:

Astronomy

Sep. 19, 2013 Rise Set
Actual Time 6:58 AM CDT 7:13 PM CDT
Civil Twilight 6:32 AM CDT 7:39 PM CDT
Nautical Twilight 6:02 AM CDT 8:09 PM CDT
Astronomical Twilight 5:31 AM CDT 8:39 PM CDT
Moon 7:14 PM CDT (9/19) 7:06 AM CDT (9/19)
Length of Visible Light 13h 06m
Length of Day
12h 15m
Full, 100% of the Moon is Illuminated
Sep 19
Full
Sep 26
Last Quarter
Oct 4
New
Oct 11
First Quarter
Oct 18
Full

Hourly Weather History & Observations

Time (CDT) Temp. Heat Index Dew Point Humidity Pressure Visibility Wind Dir Wind Speed Gust Speed Precip Events Conditions
12:53 AM 70.0 °F - 64.9 °F 84% 29.98 in - SSE 3.5 mph - N/A   Clear
1:53 AM 71.1 °F - 64.9 °F 81% 29.98 in - SSE 5.8 mph - N/A   Clear
2:53 AM 70.0 °F - 64.9 °F 84% 29.97 in - SSE 8.1 mph - N/A   Clear
3:53 AM 71.1 °F - 64.0 °F 78% 29.97 in - SE 6.9 mph - N/A   Clear
4:53 AM 72.0 °F - 64.0 °F 76% 29.97 in - SSE 9.2 mph - N/A   Clear
5:53 AM 72.0 °F - 64.9 °F 78% 29.98 in - Calm Calm - N/A   Clear
6:53 AM 72.0 °F - 64.9 °F 78% 29.99 in - South 6.9 mph - N/A   Clear
7:53 AM 73.0 °F - 66.0 °F 79% 30.00 in - South 4.6 mph - N/A   Clear
8:53 AM 73.9 °F - 66.9 °F 79% 30.00 in - South 5.8 mph - N/A   Clear
9:53 AM 78.1 °F - 68.0 °F 71% 30.01 in - South 4.6 mph - N/A   Clear
10:53 AM 82.9 °F 86.5 °F 69.1 °F 63% 30.01 in - SSE 6.9 mph - N/A   Clear
11:53 AM 86.0 °F 90.1 °F 69.1 °F 57% 30.01 in - SSW 8.1 mph - N/A   Partly Cloudy
12:53 PM 88.0 °F 90.7 °F 66.9 °F 49% 29.99 in 10.0 mi WSW 9.2 mph - N/A   Partly Cloudy
1:53 PM 90.0 °F 93.6 °F 68.0 °F 48% 29.96 in 10.0 mi SW 8.1 mph - N/A   Scattered Clouds
2:10 PM 89.6 °F 92.2 °F 66.2 °F 46% 30.01 in 10.0 mi SSW 8.1 mph - N/A Thunderstorm Scattered Clouds
2:40 PM 82.4 °F 84.6 °F 66.2 °F 58% 30.00 in 10.0 mi SSE 8.1 mph 19.6 mph N/A   Mostly Cloudy
2:53 PM 87.1 °F 89.2 °F 66.0 °F 49% 29.94 in 10.0 mi SE 9.2 mph - N/A   Partly Cloudy
3:53 PM 84.9 °F 87.6 °F 66.9 °F 55% 29.93 in 10.0 mi SSW 8.1 mph - N/A   Clear
4:05 PM 84.2 °F 87.3 °F 68.0 °F 58% 29.97 in 10.0 mi South 8.1 mph - 0.00 in Rain , Thunderstorm Light Rain
4:32 PM 84.2 °F 87.3 °F 68.0 °F 58% 29.98 in 10.0 mi South 12.7 mph 18.4 mph 0.00 in   Partly Cloudy
4:53 PM 84.0 °F 86.5 °F 66.9 °F 56% 29.94 in 10.0 mi South 9.2 mph - 0.00 in   Partly Cloudy
5:53 PM 80.1 °F 82.9 °F 69.1 °F 69% 29.92 in 10.0 mi South 9.2 mph - N/A   Clear
6:53 PM 77.0 °F - 70.0 °F 79% 29.91 in 10.0 mi SE 9.2 mph - N/A   Clear
7:53 PM 73.0 °F - 66.9 °F 81% 29.92 in 10.0 mi South 5.8 mph - N/A   Clear
8:53 PM 73.0 °F - 68.0 °F 84% 29.94 in 10.0 mi South 4.6 mph - N/A   Clear
9:53 PM 72.0 °F - 68.0 °F 87% 29.94 in 10.0 mi SSE 6.9 mph - N/A   Clear
10:53 PM 72.0 °F - 68.0 °F 87% 29.94 in 8.0 mi South 5.8 mph - N/A   Clear
11:53 PM 73.0 °F - 68.0 °F 84% 29.91 in 10.0 mi South 5.8 mph - N/A   Clear